Voltar ao catálogo

BREEZE-M DEB

LostHEO
NORAD 34248·DEBRIS·🇷🇺 Russia

Lançado Feb 28, 2006 de Baikonur Cosmodrome

Loading…

Próximas Passagens (próximas 24 horas)

TLE

ObsoletoSource: Space-Track

Época: Jun 27, 2026, 10:21 UTC

1 34248U 06006BP  26178.43184956  .00010417  00000-0  53283-2 0  9993
2 34248  51.6795 194.7618 4633339 168.5352 207.5176  6.11236934 44688

Acompanhe BREEZE-M DEB em tempo real com AllMySat

Download on the App Store